Time,TemperatureF,DewpointF,PressureIn,WindDirection,WindDirectionDegrees,WindSpeedMPH,WindSpeedGustMPH,Humidity,HourlyPrecipIn,Conditions,Clouds,dailyrainin,SolarRadiationWatts/m^2,SoftwareType,DateUTC
2013-06-07 00:03:00,49.0,45.0,-100.00,North,3,2.0,4.0,86,0.00,,,0.13,0.000000,,2013-06-07 04:03:00,
2013-06-07 00:12:00,48.0,42.0,-100.00,ENE,66,1.0,6.0,80,0.00,,,0.12,0.000000,,2013-06-07 04:12:00,
2013-06-07 00:33:00,48.0,42.0,-100.00,ENE,66,1.0,6.0,80,0.00,,,0.12,0.000000,,2013-06-07 04:33:00,
2013-06-07 00:42:00,48.0,42.0,-100.00,ENE,66,1.0,6.0,80,0.00,,,0.12,0.000000,,2013-06-07 04:42:00,
2013-06-07 00:53:00,48.0,42.0,-100.00,ENE,66,1.0,6.0,80,0.00,,,0.12,0.000000,,2013-06-07 04:53:00,
2013-06-07 01:03:00,48.0,42.0,-100.00,ENE,66,1.0,6.0,80,0.00,,,0.12,0.000000,,2013-06-07 05:03:00,
2013-06-07 01:12:00,46.0,42.0,-100.00,NNW,334,1.0,4.0,85,0.00,,,0.12,0.000000,,2013-06-07 05:12:00,
2013-06-07 01:32:00,46.0,42.0,-100.00,NNW,334,1.0,4.0,85,0.00,,,0.12,0.000000,,2013-06-07 05:32:00,
2013-06-07 01:42:00,46.0,42.0,-100.00,NNW,334,1.0,4.0,85,0.00,,,0.12,0.000000,,2013-06-07 05:42:00,
2013-06-07 01:52:00,46.0,42.0,-100.00,NNW,334,1.0,4.0,85,0.00,,,0.12,0.000000,,2013-06-07 05:52:00,
2013-06-07 02:02:00,46.0,42.0,-100.00,NNW,334,1.0,4.0,85,0.00,,,0.12,0.000000,,2013-06-07 06:02:00,
2013-06-07 02:12:00,45.0,41.0,-100.00,NW,318,0.0,3.0,85,0.00,,,0.11,0.000000,,2013-06-07 06:12:00,
2013-06-07 02:32:00,45.0,41.0,-100.00,NW,318,0.0,3.0,85,0.00,,,0.11,0.000000,,2013-06-07 06:32:00,
2013-06-07 02:43:00,45.0,41.0,-100.00,NW,318,0.0,3.0,85,0.00,,,0.11,0.000000,,2013-06-07 06:43:00,
2013-06-07 02:52:00,45.0,41.0,-100.00,NW,318,0.0,3.0,85,0.00,,,0.11,0.000000,,2013-06-07 06:52:00,
2013-06-07 03:02:00,45.0,41.0,-100.00,NW,318,0.0,3.0,85,0.00,,,0.11,0.000000,,2013-06-07 07:02:00,
2013-06-07 03:12:00,44.0,41.0,-100.00,WNW,300,1.0,3.0,88,0.00,,,0.11,0.000000,,2013-06-07 07:12:00,
2013-06-07 03:32:00,44.0,41.0,-100.00,WNW,300,1.0,3.0,88,0.00,,,0.11,0.000000,,2013-06-07 07:32:00,
2013-06-07 03:42:00,44.0,41.0,-100.00,WNW,300,1.0,3.0,88,0.00,,,0.11,0.000000,,2013-06-07 07:42:00,
2013-06-07 03:52:00,44.0,41.0,-100.00,WNW,300,1.0,3.0,88,0.00,,,0.11,0.000000,,2013-06-07 07:52:00,
2013-06-07 04:02:00,44.0,41.0,-100.00,WNW,300,1.0,3.0,88,0.00,,,0.11,0.000000,,2013-06-07 08:02:00,
2013-06-07 04:12:00,45.0,40.0,-100.00,NW,313,1.0,3.0,83,0.00,,,0.10,0.000000,,2013-06-07 08:12:00,
2013-06-07 04:32:00,45.0,40.0,-100.00,NW,313,1.0,3.0,83,0.00,,,0.10,0.000000,,2013-06-07 08:32:00,
2013-06-07 04:43:00,45.0,40.0,-100.00,NW,313,1.0,3.0,83,0.00,,,0.10,0.000000,,2013-06-07 08:43:00,
2013-06-07 04:52:00,45.0,40.0,-100.00,NW,313,1.0,3.0,83,0.00,,,0.10,0.000000,,2013-06-07 08:52:00,
2013-06-07 05:02:00,45.0,40.0,-100.00,NW,313,1.0,3.0,83,0.00,,,0.10,0.000000,,2013-06-07 09:02:00,
2013-06-07 05:12:00,46.0,41.0,-100.00,NW,317,2.0,4.0,82,0.00,,,0.07,0.000000,,2013-06-07 09:12:00,
2013-06-07 05:32:00,46.0,41.0,-100.00,NW,317,2.0,4.0,82,0.00,,,0.07,0.000000,,2013-06-07 09:32:00,
2013-06-07 05:43:00,46.0,41.0,-100.00,NW,317,2.0,4.0,82,0.00,,,0.07,0.000000,,2013-06-07 09:43:00,
2013-06-07 05:53:00,46.0,41.0,-100.00,NW,317,2.0,4.0,82,0.00,,,0.07,0.000000,,2013-06-07 09:53:00,
2013-06-07 06:02:00,46.0,41.0,-100.00,NW,317,2.0,4.0,82,0.00,,,0.07,0.000000,,2013-06-07 10:02:00,
2013-06-07 06:12:00,46.0,41.0,-100.00,NW,306,2.0,3.0,81,0.00,,,0.05,1.000000,,2013-06-07 10:12:00,
2013-06-07 06:33:00,46.0,41.0,-100.00,NW,306,2.0,3.0,81,0.00,,,0.05,1.000000,,2013-06-07 10:33:00,
2013-06-07 06:43:00,46.0,41.0,-100.00,NW,306,2.0,3.0,81,0.00,,,0.05,1.000000,,2013-06-07 10:43:00,
2013-06-07 06:53:00,46.0,41.0,-100.00,NW,306,2.0,3.0,81,0.00,,,0.05,1.000000,,2013-06-07 10:53:00,
2013-06-07 07:02:00,46.0,41.0,-100.00,NW,306,2.0,3.0,81,0.00,,,0.05,1.000000,,2013-06-07 11:02:00,
2013-06-07 07:12:00,48.0,41.0,-100.00,NW,319,3.0,4.0,77,0.00,,,0.02,23.000000,,2013-06-07 11:12:00,
2013-06-07 07:32:00,48.0,41.0,-100.00,NW,319,3.0,4.0,77,0.00,,,0.02,23.000000,,2013-06-07 11:32:00,
2013-06-07 07:42:00,48.0,41.0,-100.00,NW,319,3.0,4.0,77,0.00,,,0.02,23.000000,,2013-06-07 11:42:00,
2013-06-07 07:52:00,48.0,41.0,-100.00,NW,319,3.0,4.0,77,0.00,,,0.02,23.000000,,2013-06-07 11:52:00,
2013-06-07 08:02:00,48.0,41.0,-100.00,NW,319,3.0,4.0,77,0.00,,,0.02,23.000000,,2013-06-07 12:02:00,
2013-06-07 08:12:00,52.0,43.0,-100.00,NW,312,2.0,4.0,70,0.00,,,0.01,118.000000,,2013-06-07 12:12:00,
2013-06-07 08:33:00,52.0,43.0,-100.00,NW,312,2.0,4.0,70,0.00,,,0.01,118.000000,,2013-06-07 12:33:00,
2013-06-07 08:42:00,52.0,43.0,-100.00,NW,312,2.0,4.0,70,0.00,,,0.01,118.000000,,2013-06-07 12:42:00,
2013-06-07 08:52:00,52.0,43.0,-100.00,NW,312,2.0,4.0,70,0.00,,,0.01,118.000000,,2013-06-07 12:52:00,
2013-06-07 09:02:00,52.0,43.0,-100.00,NW,312,2.0,4.0,70,0.00,,,0.01,118.000000,,2013-06-07 13:02:00,
2013-06-07 09:32:00,61.0,43.0,-100.00,NNW,338,3.0,6.0,52,0.00,,,0.01,377.000000,,2013-06-07 13:32:00,
2013-06-07 10:33:00,66.0,38.0,-100.00,North,359,3.0,8.0,35,0.00,,,0.00,639.000000,,2013-06-07 14:33:00,
2013-06-07 11:12:00,68.0,35.0,-100.00,NNW,337,4.0,8.0,30,-99.99,,,-99.99,683.000000,,2013-06-07 15:12:00,
2013-06-07 11:33:00,68.0,35.0,-100.00,NNW,337,4.0,8.0,30,-99.99,,,-99.99,683.000000,,2013-06-07 15:33:00,
2013-06-07 12:12:00,69.0,36.0,-100.00,ENE,60,5.0,10.0,30,0.00,,,0.00,905.000000,,2013-06-07 16:12:00,
2013-06-07 12:33:00,69.0,36.0,-100.00,ENE,60,5.0,10.0,30,0.00,,,0.00,905.000000,,2013-06-07 16:33:00,
2013-06-07 12:43:00,69.0,36.0,-100.00,ENE,60,5.0,10.0,30,0.00,,,0.00,905.000000,,2013-06-07 16:43:00,
2013-06-07 12:53:00,69.0,36.0,-100.00,ENE,60,5.0,10.0,30,0.00,,,0.00,905.000000,,2013-06-07 16:53:00,
2013-06-07 13:03:00,69.0,36.0,-100.00,ENE,60,5.0,10.0,30,0.00,,,0.00,905.000000,,2013-06-07 17:03:00,
2013-06-07 13:12:00,69.0,36.0,-100.00,NNE,26,4.0,12.0,30,0.00,,,0.00,996.000000,,2013-06-07 17:12:00,
2013-06-07 13:32:00,69.0,36.0,-100.00,NNE,26,4.0,12.0,30,0.00,,,0.00,996.000000,,2013-06-07 17:32:00,
2013-06-07 13:43:00,69.0,36.0,-100.00,NNE,26,4.0,12.0,30,0.00,,,0.00,996.000000,,2013-06-07 17:43:00,
2013-06-07 13:52:00,69.0,36.0,-100.00,NNE,26,4.0,12.0,30,0.00,,,0.00,996.000000,,2013-06-07 17:52:00,
2013-06-07 14:12:00,70.0,34.0,-100.00,ENE,63,5.0,12.0,27,0.00,,,0.00,1031.000000,,2013-06-07 18:12:00,
2013-06-07 14:38:00,70.0,34.0,-100.00,ENE,63,5.0,12.0,27,0.00,,,0.00,1031.000000,,2013-06-07 18:38:00,
2013-06-07 14:45:00,70.0,34.0,-100.00,ENE,63,5.0,12.0,27,0.00,,,0.00,1031.000000,,2013-06-07 18:45:00,
2013-06-07 14:59:00,70.0,34.0,-100.00,ENE,63,5.0,12.0,27,0.00,,,0.00,1031.000000,,2013-06-07 18:59:00,
2013-06-07 15:07:00,70.0,34.0,-100.00,ENE,63,5.0,12.0,27,0.00,,,0.00,1031.000000,,2013-06-07 19:07:00,
2013-06-07 15:12:00,70.0,36.0,-100.00,NNE,32,5.0,13.0,29,0.00,,,0.00,1001.000000,,2013-06-07 19:12:00,
2013-06-07 15:40:00,70.0,36.0,-100.00,NNE,32,5.0,13.0,29,0.00,,,0.00,1001.000000,,2013-06-07 19:40:00,
2013-06-07 15:50:00,70.0,36.0,-100.00,NNE,32,5.0,13.0,29,0.00,,,0.00,1001.000000,,2013-06-07 19:50:00,
2013-06-07 15:59:00,70.0,36.0,-100.00,NNE,32,5.0,13.0,29,0.00,,,0.00,1001.000000,,2013-06-07 19:59:00,
2013-06-07 16:07:00,70.0,36.0,-100.00,NNE,32,5.0,13.0,29,0.00,,,0.00,1001.000000,,2013-06-07 20:07:00,
2013-06-07 16:12:00,71.0,40.0,-100.00,NNE,30,4.0,12.0,32,0.00,,,0.00,937.000000,,2013-06-07 20:12:00,
2013-06-07 16:41:00,71.0,40.0,-100.00,NNE,30,4.0,12.0,32,0.00,,,0.00,937.000000,,2013-06-07 20:41:00,
2013-06-07 16:58:00,71.0,40.0,-100.00,NNE,30,4.0,12.0,32,0.00,,,0.00,937.000000,,2013-06-07 20:58:00,
2013-06-07 17:05:00,71.0,40.0,-100.00,NNE,30,4.0,12.0,32,0.00,,,0.00,937.000000,,2013-06-07 21:05:00,
2013-06-07 17:12:00,72.0,40.0,-100.00,East,90,4.0,11.0,31,0.00,,,0.00,817.000000,,2013-06-07 21:12:00,
2013-06-07 17:43:00,72.0,40.0,-100.00,East,90,4.0,11.0,31,0.00,,,0.00,817.000000,,2013-06-07 21:43:00,
2013-06-07 18:01:00,72.0,40.0,-100.00,East,90,4.0,11.0,31,0.00,,,0.00,817.000000,,2013-06-07 22:01:00,
2013-06-07 18:39:00,70.0,36.0,-100.00,East,82,4.0,10.0,29,0.00,,,0.00,661.000000,,2013-06-07 22:39:00,
2013-06-07 18:49:00,70.0,36.0,-100.00,East,82,4.0,10.0,29,0.00,,,0.00,661.000000,,2013-06-07 22:49:00,
2013-06-07 18:59:00,70.0,36.0,-100.00,East,82,4.0,10.0,29,0.00,,,0.00,661.000000,,2013-06-07 22:59:00,
2013-06-07 19:12:00,70.0,37.0,-100.00,ENE,72,3.0,8.0,30,0.00,,,0.00,482.000000,,2013-06-07 23:12:00,
2013-06-07 20:03:00,70.0,37.0,-100.00,ENE,72,3.0,8.0,30,0.00,,,0.00,482.000000,,2013-06-08 00:03:00,
2013-06-07 20:10:00,70.0,37.0,-100.00,ENE,72,3.0,8.0,30,0.00,,,0.00,482.000000,,2013-06-08 00:10:00,
2013-06-07 20:37:00,67.0,37.0,-100.00,ENE,67,2.0,6.0,33,-99.99,,,-99.99,283.000000,,2013-06-08 00:37:00,
2013-06-07 21:00:00,67.0,37.0,-100.00,ENE,67,2.0,6.0,33,-99.99,,,-99.99,283.000000,,2013-06-08 01:00:00,
2013-06-07 21:07:00,67.0,37.0,-100.00,ENE,67,2.0,6.0,33,-99.99,,,-99.99,283.000000,,2013-06-08 01:07:00,
2013-06-07 21:12:00,61.0,38.0,-100.00,East,85,0.0,5.0,43,-99.99,,,0.00,111.000000,,2013-06-08 01:12:00,
2013-06-07 21:40:00,61.0,38.0,-100.00,East,85,0.0,5.0,43,-99.99,,,0.00,111.000000,,2013-06-08 01:40:00,
2013-06-07 21:48:00,61.0,38.0,-100.00,East,85,0.0,5.0,43,-99.99,,,0.00,111.000000,,2013-06-08 01:48:00,
2013-06-07 22:01:00,61.0,38.0,-100.00,East,85,0.0,5.0,43,-99.99,,,0.00,111.000000,,2013-06-08 02:01:00,
2013-06-07 22:08:00,61.0,38.0,-100.00,East,85,0.0,5.0,43,-99.99,,,0.00,111.000000,,2013-06-08 02:08:00,
2013-06-07 22:12:00,52.0,39.0,-100.00,NNE,22,0.0,2.0,61,0.00,,,0.00,5.000000,,2013-06-08 02:12:00,
2013-06-07 22:37:00,52.0,39.0,-100.00,NNE,22,0.0,2.0,61,0.00,,,0.00,5.000000,,2013-06-08 02:37:00,
2013-06-07 22:49:00,52.0,39.0,-100.00,NNE,22,0.0,2.0,61,0.00,,,0.00,5.000000,,2013-06-08 02:49:00,
2013-06-07 22:59:00,52.0,39.0,-100.00,NNE,22,0.0,2.0,61,0.00,,,0.00,5.000000,,2013-06-08 02:59:00,
2013-06-07 23:08:00,52.0,39.0,-100.00,NNE,22,0.0,2.0,61,0.00,,,0.00,5.000000,,2013-06-08 03:08:00,
2013-06-07 23:12:00,47.0,39.0,-100.00,SSW,196,0.0,0.0,75,0.00,,,0.00,0.000000,,2013-06-08 03:12:00,
2013-06-07 23:40:00,47.0,39.0,-100.00,SSW,196,0.0,0.0,75,0.00,,,0.00,0.000000,,2013-06-08 03:40:00,
2013-06-07 23:53:00,47.0,39.0,-100.00,SSW,196,0.0,0.0,75,0.00,,,0.00,0.000000,,2013-06-08 03:53:00,